Time,TemperatureF,DewpointF,PressureIn,WindDirection,WindDirectionDegrees,WindSpeedMPH,WindSpeedGustMPH,Humidity,HourlyPrecipIn,Conditions,Clouds,dailyrainin,SoftwareType,DateUTC
2013-03-02 00:00:00,25.5,20.8,30.12,WNW,299,2.0,4.0,82,0.00,,---,0.00,VWS V14.01,2013-03-02 06:00:00,
2013-03-02 00:05:00,25.5,20.8,30.12,NE,36,0.0,4.0,82,0.00,,---,0.00,VWS V14.01,2013-03-02 06:05:00,
2013-03-02 00:10:00,25.5,20.8,30.12,West,281,2.0,4.0,82,0.00,,---,0.00,VWS V14.01,2013-03-02 06:10:00,
2013-03-02 00:15:00,25.4,20.7,30.12,East,84,1.0,7.0,82,0.00,,---,0.00,VWS V14.01,2013-03-02 06:15:00,
2013-03-02 00:20:00,25.4,20.4,30.12,NE,54,1.0,7.0,81,0.00,,---,0.00,VWS V14.01,2013-03-02 06:20:00,
2013-03-02 00:25:00,25.3,20.6,30.12,West,267,2.0,7.0,82,0.00,,---,0.00,VWS V14.01,2013-03-02 06:25:00,
2013-03-02 00:30:00,25.3,20.3,30.12,NW,311,0.0,5.0,81,0.00,,---,0.00,VWS V14.01,2013-03-02 06:30:00,
2013-03-02 00:35:00,25.2,19.9,30.13,East,101,1.0,6.0,80,0.00,,---,0.00,VWS V14.01,2013-03-02 06:35:00,
2013-03-02 00:40:00,25.2,20.2,30.13,ENE,71,2.0,6.0,81,0.00,,---,0.00,VWS V14.01,2013-03-02 06:40:00,
2013-03-02 00:45:00,25.2,19.9,30.12,WSW,250,5.0,6.0,80,0.00,,---,0.00,VWS V14.01,2013-03-02 06:45:00,
2013-03-02 00:50:00,25.2,20.2,30.12,ENE,71,0.0,6.0,81,0.00,,---,0.00,VWS V14.01,2013-03-02 06:50:00,
2013-03-02 00:55:00,25.2,20.2,30.12,NE,44,0.0,6.0,81,0.00,,---,0.00,VWS V14.01,2013-03-02 06:55:00,
2013-03-02 01:00:00,25.1,20.1,30.13,NE,51,1.0,3.0,81,0.00,,---,0.00,VWS V14.01,2013-03-02 07:00:00,
2013-03-02 01:05:00,25.1,20.1,30.13,NW,311,1.0,3.0,81,0.00,,---,0.00,VWS V14.01,2013-03-02 07:05:00,
2013-03-02 01:10:00,25.1,20.1,30.13,North,7,0.0,3.0,81,0.00,,---,0.00,VWS V14.01,2013-03-02 07:10:00,
2013-03-02 01:15:00,25.1,20.1,30.12,North,354,1.0,3.0,81,0.00,,---,0.00,VWS V14.01,2013-03-02 07:15:00,
2013-03-02 01:20:00,25.1,20.1,30.12,WNW,290,0.0,3.0,81,0.00,,---,0.00,VWS V14.01,2013-03-02 07:20:00,
2013-03-02 01:25:00,25.1,20.1,30.12,East,101,0.0,3.0,81,0.00,,---,0.00,VWS V14.01,2013-03-02 07:25:00,
2013-03-02 01:30:00,25.1,20.1,30.12,North,7,0.0,2.0,81,0.00,,---,0.00,VWS V14.01,2013-03-02 07:30:00,
2013-03-02 01:35:00,25.1,20.1,30.12,NNE,18,0.0,5.0,81,0.00,,---,0.00,VWS V14.01,2013-03-02 07:35:00,
2013-03-02 01:40:00,25.1,20.1,30.12,WNW,287,1.0,5.0,81,0.00,,---,0.00,VWS V14.01,2013-03-02 07:40:00,
2013-03-02 01:45:00,25.2,20.2,30.12,WNW,288,1.0,5.0,81,0.00,,---,0.00,VWS V14.01,2013-03-02 07:45:00,
2013-03-02 01:50:00,25.2,20.2,30.11,NNW,330,0.0,5.0,81,0.00,,---,0.00,VWS V14.01,2013-03-02 07:50:00,
2013-03-02 01:55:00,25.2,20.2,30.11,WNW,287,2.0,5.0,81,0.00,,---,0.00,VWS V14.01,2013-03-02 07:55:00,
2013-03-02 02:00:00,25.2,20.5,30.11,WNW,290,0.0,0.0,82,0.00,,---,0.00,VWS V14.01,2013-03-02 08:00:00,
2013-03-02 02:05:00,25.2,20.5,30.11,NW,309,1.0,2.0,82,0.00,,---,0.00,VWS V14.01,2013-03-02 08:05:00,
2013-03-02 02:10:00,25.2,20.5,30.11,WNW,300,1.0,3.0,82,0.00,,---,0.00,VWS V14.01,2013-03-02 08:10:00,
2013-03-02 02:15:00,25.3,20.3,30.11,NW,325,0.0,3.0,81,0.00,,---,0.00,VWS V14.01,2013-03-02 08:15:00,
2013-03-02 02:20:00,25.3,20.6,30.10,WNW,297,2.0,3.0,82,0.00,,---,0.00,VWS V14.01,2013-03-02 08:20:00,
2013-03-02 02:25:00,25.3,20.6,30.10,NW,316,0.0,3.0,82,0.00,,---,0.00,VWS V14.01,2013-03-02 08:25:00,
2013-03-02 02:30:00,25.3,20.6,30.10,NW,304,2.0,4.0,82,0.00,,---,0.00,VWS V14.01,2013-03-02 08:30:00,
2013-03-02 02:35:00,25.3,20.6,30.10,WNW,284,0.0,4.0,82,0.00,,---,0.00,VWS V14.01,2013-03-02 08:35:00,
2013-03-02 02:40:00,25.4,20.7,30.10,WSW,257,1.0,4.0,82,0.00,,---,0.00,VWS V14.01,2013-03-02 08:40:00,
2013-03-02 02:45:00,25.4,20.7,30.10,West,276,0.0,4.0,82,0.00,,---,0.00,VWS V14.01,2013-03-02 08:45:00,
2013-03-02 02:50:00,25.4,20.7,30.10,West,276,1.0,4.0,82,0.00,,---,0.00,VWS V14.01,2013-03-02 08:50:00,
2013-03-02 02:55:00,25.5,20.8,30.10,WNW,293,1.0,5.0,82,0.00,,---,0.00,VWS V14.01,2013-03-02 08:55:00,
2013-03-02 03:00:00,25.5,20.8,30.10,NW,317,1.0,3.0,82,0.00,,---,0.00,VWS V14.01,2013-03-02 09:00:00,
2013-03-02 03:05:00,25.5,20.8,30.10,West,281,1.0,4.0,82,0.00,,---,0.00,VWS V14.01,2013-03-02 09:05:00,
2013-03-02 03:10:00,25.5,21.1,30.10,NNW,348,0.0,4.0,83,0.00,,---,0.00,VWS V14.01,2013-03-02 09:10:00,
2013-03-02 03:15:00,25.5,20.8,30.10,WNW,293,0.0,4.0,82,0.00,,---,0.00,VWS V14.01,2013-03-02 09:15:00,
2013-03-02 03:20:00,25.6,20.9,30.10,WNW,283,1.0,4.0,82,0.00,,---,0.00,VWS V14.01,2013-03-02 09:20:00,
2013-03-02 03:25:00,25.6,20.9,30.10,NW,309,0.0,4.0,82,0.00,,---,0.00,VWS V14.01,2013-03-02 09:25:00,
2013-03-02 03:30:00,25.6,20.9,30.10,West,281,1.0,1.0,82,0.00,,---,0.00,VWS V14.01,2013-03-02 09:30:00,
2013-03-02 03:35:00,25.7,21.0,30.10,NE,51,1.0,3.0,82,0.00,,---,0.00,VWS V14.01,2013-03-02 09:35:00,
2013-03-02 03:40:00,25.7,21.0,30.09,NW,315,1.0,3.0,82,0.00,,---,0.00,VWS V14.01,2013-03-02 09:40:00,
2013-03-02 03:45:00,25.7,21.0,30.09,NW,319,1.0,6.0,82,0.00,,---,0.00,VWS V14.01,2013-03-02 09:45:00,
2013-03-02 03:50:00,25.7,20.7,30.10,North,356,2.0,6.0,81,0.00,,---,0.00,VWS V14.01,2013-03-02 09:50:00,
2013-03-02 03:55:00,25.7,20.7,30.10,NNW,348,4.0,6.0,81,0.00,,---,0.00,VWS V14.01,2013-03-02 09:55:00,
2013-03-02 04:00:00,25.7,20.7,30.10,NNW,328,1.0,4.0,81,0.00,,---,0.00,VWS V14.01,2013-03-02 10:00:00,
2013-03-02 04:05:00,25.7,20.7,30.10,NNW,328,1.0,6.0,81,0.00,,---,0.00,VWS V14.01,2013-03-02 10:05:00,
2013-03-02 04:10:00,25.6,20.6,30.10,WSW,255,2.0,6.0,81,0.00,,---,0.00,VWS V14.01,2013-03-02 10:10:00,
2013-03-02 04:15:00,25.6,20.3,30.10,NNW,330,1.0,6.0,80,0.00,,---,0.00,VWS V14.01,2013-03-02 10:15:00,
2013-03-02 04:20:00,25.6,20.6,30.10,WNW,302,3.0,7.0,81,0.00,,---,0.00,VWS V14.01,2013-03-02 10:20:00,
2013-03-02 04:25:00,25.6,20.6,30.10,WNW,284,2.0,7.0,81,0.00,,---,0.00,VWS V14.01,2013-03-02 10:25:00,
2013-03-02 04:30:00,25.5,20.5,30.10,SW,228,0.0,2.0,81,0.00,,---,0.00,VWS V14.01,2013-03-02 10:30:00,
2013-03-02 04:35:00,25.5,20.8,30.10,WNW,283,1.0,3.0,82,0.00,,---,0.00,VWS V14.01,2013-03-02 10:35:00,
2013-03-02 04:41:00,25.4,21.0,30.10,WNW,285,0.0,3.0,83,0.00,,---,0.00,VWS V14.01,2013-03-02 10:41:00,
2013-03-02 04:46:00,25.4,21.0,30.10,North,352,1.0,4.0,83,0.00,,---,0.00,VWS V14.01,2013-03-02 10:46:00,
2013-03-02 04:51:00,25.3,20.9,30.10,West,270,3.0,4.0,83,0.00,,---,0.00,VWS V14.01,2013-03-02 10:51:00,
2013-03-02 04:55:00,25.3,20.6,30.10,NW,309,1.0,4.0,82,0.00,,---,0.00,VWS V14.01,2013-03-02 10:55:00,
2013-03-02 05:00:00,25.3,20.6,30.10,NNW,336,2.0,4.0,82,0.00,,---,0.00,VWS V14.01,2013-03-02 11:00:00,
2013-03-02 05:05:00,25.3,20.6,30.10,NNW,330,1.0,8.0,82,0.00,,---,0.00,VWS V14.01,2013-03-02 11:05:00,
2013-03-02 05:10:00,25.2,20.5,30.10,North,6,2.0,8.0,82,0.00,,---,0.00,VWS V14.01,2013-03-02 11:10:00,
2013-03-02 05:15:00,25.2,20.5,30.10,NNE,17,0.0,8.0,82,0.00,,---,0.00,VWS V14.01,2013-03-02 11:15:00,
2013-03-02 05:20:00,25.2,20.5,30.10,NNE,20,3.0,8.0,82,0.00,,---,0.00,VWS V14.01,2013-03-02 11:20:00,
2013-03-02 05:25:00,25.1,20.4,30.10,NW,315,1.0,8.0,82,0.00,,---,0.00,VWS V14.01,2013-03-02 11:25:00,
2013-03-02 05:30:00,25.1,20.4,30.10,West,270,2.0,3.0,82,0.00,,---,0.00,VWS V14.01,2013-03-02 11:30:00,
2013-03-02 05:35:00,25.1,20.1,30.10,NNW,344,2.0,6.0,81,0.00,,---,0.00,VWS V14.01,2013-03-02 11:35:00,
2013-03-02 05:40:00,25.1,20.4,30.10,ESE,117,1.0,6.0,82,0.00,,---,0.00,VWS V14.01,2013-03-02 11:40:00,
2013-03-02 05:45:00,25.1,20.4,30.10,North,359,0.0,6.0,82,0.00,,---,0.00,VWS V14.01,2013-03-02 11:45:00,
2013-03-02 05:50:00,25.1,20.4,30.10,West,267,0.0,6.0,82,0.00,,---,0.00,VWS V14.01,2013-03-02 11:50:00,
2013-03-02 05:55:00,25.1,20.4,30.10,NW,323,2.0,6.0,82,0.00,,---,0.00,VWS V14.01,2013-03-02 11:55:00,
2013-03-02 06:00:00,25.1,20.7,30.10,WNW,290,1.0,5.0,83,0.00,,---,0.00,VWS V14.01,2013-03-02 12:00:00,
2013-03-02 06:05:00,25.1,20.7,30.11,WNW,283,1.0,5.0,83,0.00,,---,0.00,VWS V14.01,2013-03-02 12:05:00,
2013-03-02 06:10:00,25.0,20.3,30.10,North,9,0.0,5.0,82,0.00,,---,0.00,VWS V14.01,2013-03-02 12:10:00,
2013-03-02 06:15:00,25.0,20.3,30.10,NNW,333,0.0,5.0,82,0.00,,---,0.00,VWS V14.01,2013-03-02 12:15:00,
2013-03-02 06:20:00,25.0,20.3,30.11,NNW,329,0.0,5.0,82,0.00,,---,0.00,VWS V14.01,2013-03-02 12:20:00,
2013-03-02 06:25:00,25.1,20.4,30.11,NW,318,0.0,5.0,82,0.00,,---,0.00,VWS V14.01,2013-03-02 12:25:00,
2013-03-02 06:30:00,25.1,20.7,30.11,East,100,0.0,2.0,83,0.00,,---,0.00,VWS V14.01,2013-03-02 12:30:00,
2013-03-02 06:35:00,25.1,20.7,30.11,WNW,291,3.0,3.0,83,0.00,,---,0.00,VWS V14.01,2013-03-02 12:35:00,
2013-03-02 06:40:00,25.1,20.7,30.11,NW,315,1.0,4.0,83,0.00,,---,0.00,VWS V14.01,2013-03-02 12:40:00,
2013-03-02 06:45:00,25.0,20.6,30.11,WNW,300,2.0,4.0,83,0.00,,---,0.00,VWS V14.01,2013-03-02 12:45:00,
2013-03-02 06:50:00,25.0,20.6,30.11,WNW,301,1.0,4.0,83,0.00,,---,0.00,VWS V14.01,2013-03-02 12:50:00,
2013-03-02 06:55:00,25.0,20.6,30.11,NW,309,1.0,4.0,83,0.00,,---,0.00,VWS V14.01,2013-03-02 12:55:00,
2013-03-02 07:00:00,25.1,21.0,30.11,NW,312,0.0,1.0,84,0.00,,---,0.00,VWS V14.01,2013-03-02 13:00:00,
2013-03-02 07:05:00,25.1,20.7,30.11,NW,308,1.0,7.0,83,0.00,,---,0.00,VWS V14.01,2013-03-02 13:05:00,
2013-03-02 07:10:00,25.1,21.0,30.11,WSW,243,1.0,7.0,84,0.00,,---,0.00,VWS V14.01,2013-03-02 13:10:00,
2013-03-02 07:15:00,25.1,21.0,30.11,WSW,240,1.0,7.0,84,0.00,,---,0.00,VWS V14.01,2013-03-02 13:15:00,
2013-03-02 07:20:00,25.1,21.2,30.12,South,170,0.0,7.0,85,0.00,,---,0.00,VWS V14.01,2013-03-02 13:20:00,
2013-03-02 07:25:00,25.1,21.2,30.12,NNW,343,1.0,7.0,85,0.00,,---,0.00,VWS V14.01,2013-03-02 13:25:00,
2013-03-02 07:30:00,25.0,21.4,30.11,NW,306,0.0,7.0,86,0.00,,---,0.00,VWS V14.01,2013-03-02 13:30:00,
2013-03-02 07:35:00,25.0,21.4,30.12,NW,315,3.0,7.0,86,0.00,,---,0.00,VWS V14.01,2013-03-02 13:35:00,
2013-03-02 07:40:00,25.0,21.4,30.12,SW,224,0.0,7.0,86,0.00,,---,0.00,VWS V14.01,2013-03-02 13:40:00,
2013-03-02 07:45:00,25.0,21.4,30.12,WNW,297,1.0,7.0,86,0.00,,---,0.00,VWS V14.01,2013-03-02 13:45:00,
2013-03-02 07:50:00,25.0,21.7,30.11,NW,308,2.0,7.0,87,0.00,,---,0.00,VWS V14.01,2013-03-02 13:50:00,
2013-03-02 07:55:00,25.0,21.7,30.11,WNW,284,1.0,7.0,87,0.00,,---,0.00,VWS V14.01,2013-03-02 13:55:00,
2013-03-02 08:00:00,24.9,21.6,30.11,NE,53,3.0,4.0,87,0.00,,---,0.00,VWS V14.01,2013-03-02 14:00:00,
2013-03-02 08:05:00,24.9,21.6,30.12,WNW,287,5.0,5.0,87,0.00,,---,0.00,VWS V14.01,2013-03-02 14:05:00,
2013-03-02 08:10:00,25.0,21.7,30.11,WNW,300,0.0,7.0,87,0.00,,---,0.00,VWS V14.01,2013-03-02 14:10:00,
2013-03-02 08:15:00,25.0,21.7,30.11,NNW,343,1.0,7.0,87,0.00,,---,0.00,VWS V14.01,2013-03-02 14:15:00,
2013-03-02 08:20:00,25.1,21.8,30.11,South,173,0.0,7.0,87,0.00,,---,0.00,VWS V14.01,2013-03-02 14:20:00,
2013-03-02 08:25:00,25.2,21.9,30.11,NW,323,3.0,7.0,87,0.00,,---,0.00,VWS V14.01,2013-03-02 14:25:00,
2013-03-02 08:30:00,25.2,21.6,30.11,NW,307,2.0,3.0,86,0.00,,---,0.00,VWS V14.01,2013-03-02 14:30:00,
2013-03-02 08:35:00,25.2,21.9,30.11,NW,318,1.0,3.0,87,0.00,,---,0.00,VWS V14.01,2013-03-02 14:35:00,
2013-03-02 08:40:00,25.1,21.5,30.11,WNW,287,3.0,6.0,86,0.00,,---,0.00,VWS V14.01,2013-03-02 14:40:00,
2013-03-02 08:45:00,25.0,21.7,30.11,WNW,297,3.0,6.0,87,0.00,,---,0.00,VWS V14.01,2013-03-02 14:45:00,
2013-03-02 08:50:00,25.0,21.7,30.11,NW,317,0.0,6.0,87,0.00,,---,0.00,VWS V14.01,2013-03-02 14:50:00,
2013-03-02 08:55:00,25.1,21.5,30.11,NW,311,1.0,6.0,86,0.00,,---,0.00,VWS V14.01,2013-03-02 14:55:00,
2013-03-02 09:00:00,25.3,21.7,30.11,NW,307,1.0,4.0,86,0.00,,---,0.00,VWS V14.01,2013-03-02 15:00:00,
2013-03-02 09:05:00,25.5,21.9,30.11,East,96,0.0,4.0,86,0.00,,---,0.00,VWS V14.01,2013-03-02 15:05:00,
2013-03-02 09:10:00,25.6,21.7,30.11,NW,317,1.0,9.0,85,0.00,,---,0.00,VWS V14.01,2013-03-02 15:10:00,
2013-03-02 09:15:00,25.7,22.1,30.11,NNW,332,1.0,9.0,86,0.00,,---,0.00,VWS V14.01,2013-03-02 15:15:00,
2013-03-02 09:20:00,25.7,21.8,30.11,NNW,340,2.0,9.0,85,0.00,,---,0.00,VWS V14.01,2013-03-02 15:20:00,
2013-03-02 09:25:00,25.7,21.8,30.11,WNW,290,0.0,9.0,85,0.00,,---,0.00,VWS V14.01,2013-03-02 15:25:00,
2013-03-02 09:30:00,25.8,21.9,30.11,North,358,1.0,3.0,85,0.00,,---,0.00,VWS V14.01,2013-03-02 15:30:00,
2013-03-02 09:35:00,25.9,22.0,30.12,NW,304,5.0,5.0,85,0.00,,---,0.00,VWS V14.01,2013-03-02 15:35:00,
2013-03-02 09:40:00,25.9,21.7,30.11,WNW,294,1.0,5.0,84,0.00,,---,0.00,VWS V14.01,2013-03-02 15:40:00,
2013-03-02 09:45:00,26.1,21.6,30.11,NW,316,2.0,5.0,83,0.00,,---,0.00,VWS V14.01,2013-03-02 15:45:00,
2013-03-02 09:50:00,26.0,21.6,30.11,North,11,2.0,8.0,83,0.00,,---,0.00,VWS V14.01,2013-03-02 15:50:00,
2013-03-02 09:55:00,26.1,21.6,30.11,SW,229,1.0,8.0,83,0.00,,---,0.00,VWS V14.01,2013-03-02 15:55:00,
2013-03-02 10:00:00,26.4,22.0,30.11,NW,325,1.0,3.0,83,0.00,,---,0.00,VWS V14.01,2013-03-02 16:00:00,
2013-03-02 10:05:00,26.6,22.1,30.11,WNW,297,1.0,3.0,83,0.00,,---,0.00,VWS V14.01,2013-03-02 16:05:00,
2013-03-02 10:10:00,26.6,21.9,30.11,WNW,303,1.0,6.0,82,0.00,,---,0.00,VWS V14.01,2013-03-02 16:10:00,
2013-03-02 10:15:00,26.7,22.2,30.11,NNE,19,1.0,6.0,83,0.00,,---,0.00,VWS V14.01,2013-03-02 16:15:00,
2013-03-02 10:20:00,26.9,22.1,30.11,NW,323,3.0,6.0,82,0.00,,---,0.00,VWS V14.01,2013-03-02 16:20:00,
2013-03-02 10:25:00,27.0,22.0,30.11,WNW,288,4.0,7.0,81,0.00,,---,0.00,VWS V14.01,2013-03-02 16:25:00,
2013-03-02 10:30:00,27.7,22.9,30.11,NW,307,3.0,5.0,82,0.00,,---,0.00,VWS V14.01,2013-03-02 16:30:00,
2013-03-02 10:35:00,28.1,22.4,30.11,North,349,2.0,8.0,79,0.00,,---,0.00,VWS V14.01,2013-03-02 16:35:00,
2013-03-02 10:40:00,28.7,23.6,30.11,NNE,20,4.0,8.0,81,0.00,,---,0.00,VWS V14.01,2013-03-02 16:40:00,
2013-03-02 10:45:00,28.8,22.5,30.11,WSW,243,1.0,8.0,77,0.00,,---,0.00,VWS V14.01,2013-03-02 16:45:00,
2013-03-02 10:50:00,28.7,22.4,30.11,North,5,3.0,12.0,77,0.00,,---,0.00,VWS V14.01,2013-03-02 16:50:00,
2013-03-02 10:55:00,29.0,23.0,30.11,NNW,328,2.0,12.0,78,0.00,,---,0.00,VWS V14.01,2013-03-02 16:55:00,
2013-03-02 11:00:00,28.8,22.5,30.11,West,278,4.0,5.0,77,0.00,,---,0.00,VWS V14.01,2013-03-02 17:00:00,
2013-03-02 11:05:00,28.6,22.0,30.10,WNW,290,1.0,9.0,76,0.00,,---,0.00,VWS V14.01,2013-03-02 17:05:00,
2013-03-02 11:10:00,28.9,22.9,30.10,NNE,13,0.0,9.0,78,0.00,,---,0.00,VWS V14.01,2013-03-02 17:10:00,
2013-03-02 11:15:00,28.9,22.3,30.10,West,274,2.0,9.0,76,0.00,,---,0.00,VWS V14.01,2013-03-02 17:15:00,
2013-03-02 11:20:00,28.6,21.7,30.10,North,6,3.0,9.0,75,0.00,,---,0.00,VWS V14.01,2013-03-02 17:20:00,
2013-03-02 11:25:00,28.6,21.7,30.10,NW,326,6.0,9.0,75,0.00,,---,0.00,VWS V14.01,2013-03-02 17:25:00,
2013-03-02 11:30:00,28.3,21.7,30.10,NNE,23,7.0,8.0,76,0.00,,---,0.00,VWS V14.01,2013-03-02 17:30:00,
2013-03-02 11:35:00,28.3,22.0,30.10,North,10,2.0,8.0,77,0.00,,---,0.00,VWS V14.01,2013-03-02 17:35:00,
2013-03-02 11:40:00,28.6,22.0,30.10,WSW,256,4.0,8.0,76,0.00,,---,0.00,VWS V14.01,2013-03-02 17:40:00,
2013-03-02 11:45:00,28.2,21.0,30.10,North,6,2.0,8.0,74,0.00,,---,0.00,VWS V14.01,2013-03-02 17:45:00,
2013-03-02 11:50:00,28.0,21.1,30.09,WNW,297,4.0,8.0,75,0.00,,---,0.00,VWS V14.01,2013-03-02 17:50:00,
2013-03-02 11:55:00,28.0,21.1,30.09,NNW,327,1.0,10.0,75,0.00,,---,0.00,VWS V14.01,2013-03-02 17:55:00,
2013-03-02 12:00:00,27.8,20.6,30.10,WNW,293,1.0,5.0,74,0.00,,---,0.00,VWS V14.01,2013-03-02 18:00:00,
2013-03-02 12:05:00,27.8,20.9,30.09,NNW,333,0.0,5.0,75,0.00,,---,0.00,VWS V14.01,2013-03-02 18:05:00,
2013-03-02 12:10:00,27.8,21.2,30.09,NNW,344,0.0,5.0,76,0.00,,---,0.00,VWS V14.01,2013-03-02 18:10:00,
2013-03-02 12:15:00,27.9,21.0,30.09,WNW,291,2.0,5.0,75,0.00,,---,0.00,VWS V14.01,2013-03-02 18:15:00,
2013-03-02 12:20:00,27.8,21.2,30.09,NNW,330,5.0,5.0,76,0.00,,---,0.00,VWS V14.01,2013-03-02 18:20:00,
2013-03-02 12:25:00,27.6,20.7,30.09,WNW,293,1.0,6.0,75,0.00,,---,0.00,VWS V14.01,2013-03-02 18:25:00,
2013-03-02 12:30:00,27.4,20.8,30.09,SW,220,1.0,2.0,76,0.00,,---,0.00,VWS V14.01,2013-03-02 18:30:00,
2013-03-02 12:35:00,27.5,20.9,30.09,North,349,3.0,6.0,76,0.00,,---,0.00,VWS V14.01,2013-03-02 18:35:00,
2013-03-02 12:40:00,27.4,20.8,30.09,NNW,338,2.0,6.0,76,0.00,,---,0.00,VWS V14.01,2013-03-02 18:40:00,
2013-03-02 12:45:00,27.2,20.6,30.09,NW,321,4.0,7.0,76,0.00,,---,0.00,VWS V14.01,2013-03-02 18:45:00,
2013-03-02 12:50:00,27.1,20.5,30.09,NNE,19,2.0,7.0,76,0.00,,---,0.00,VWS V14.01,2013-03-02 18:50:00,
2013-03-02 12:55:00,27.1,20.2,30.09,SSE,159,0.0,7.0,75,0.00,,---,0.00,VWS V14.01,2013-03-02 18:55:00,
2013-03-02 13:00:00,27.3,20.8,30.09,West,264,1.0,2.0,76,0.00,,---,0.00,VWS V14.01,2013-03-02 19:00:00,
2013-03-02 13:05:00,27.5,20.9,30.09,West,280,2.0,4.0,76,0.00,,---,0.00,VWS V14.01,2013-03-02 19:05:00,
2013-03-02 13:10:00,27.4,20.5,30.09,NW,313,2.0,6.0,75,0.00,,---,0.00,VWS V14.01,2013-03-02 19:10:00,
2013-03-02 13:15:00,27.2,20.6,30.09,NW,309,7.0,7.0,76,0.00,,---,0.00,VWS V14.01,2013-03-02 19:15:00,
2013-03-02 13:20:00,27.1,20.5,30.09,East,83,1.0,7.0,76,0.00,,---,0.00,VWS V14.01,2013-03-02 19:20:00,
2013-03-02 13:25:00,27.0,20.5,30.09,NW,304,1.0,7.0,76,0.00,,---,0.00,VWS V14.01,2013-03-02 19:25:00,
2013-03-02 13:30:00,26.8,20.0,30.09,NW,315,2.0,5.0,75,0.00,,---,0.00,VWS V14.01,2013-03-02 19:30:00,
2013-03-02 13:35:00,26.8,20.3,30.09,West,274,2.0,5.0,76,0.00,,---,0.00,VWS V14.01,2013-03-02 19:35:00,
2013-03-02 13:40:00,26.9,20.4,30.09,NNW,345,3.0,6.0,76,0.00,,---,0.00,VWS V14.01,2013-03-02 19:40:00,
2013-03-02 13:45:00,26.9,20.7,30.09,NNW,327,1.0,6.0,77,0.00,,---,0.00,VWS V14.01,2013-03-02 19:45:00,
2013-03-02 13:50:00,26.8,20.6,30.09,ENE,58,2.0,6.0,77,0.00,,---,0.00,VWS V14.01,2013-03-02 19:50:00,
2013-03-02 13:55:00,26.8,20.6,30.09,North,7,1.0,6.0,77,0.00,,---,0.00,VWS V14.01,2013-03-02 19:55:00,
2013-03-02 14:00:00,26.8,20.6,30.09,NNW,330,2.0,3.0,77,0.00,,---,0.00,VWS V14.01,2013-03-02 20:00:00,
2013-03-02 14:05:00,26.7,20.5,30.09,NNE,13,0.0,4.0,77,0.00,,---,0.00,VWS V14.01,2013-03-02 20:05:00,
2013-03-02 14:10:00,26.7,20.5,30.09,NW,315,1.0,5.0,77,0.00,,---,0.00,VWS V14.01,2013-03-02 20:10:00,
2013-03-02 14:15:00,26.7,20.5,30.08,West,278,6.0,6.0,77,0.00,,---,0.00,VWS V14.01,2013-03-02 20:15:00,
2013-03-02 14:20:00,26.7,20.5,30.08,North,354,2.0,6.0,77,0.00,,---,0.00,VWS V14.01,2013-03-02 20:20:00,
2013-03-02 14:25:00,26.6,20.7,30.08,NNE,19,1.0,6.0,78,0.00,,---,0.00,VWS V14.01,2013-03-02 20:25:00,
2013-03-02 14:30:00,26.7,20.8,30.08,North,10,2.0,4.0,78,0.00,,---,0.00,VWS V14.01,2013-03-02 20:30:00,
2013-03-02 14:35:00,26.7,20.8,30.08,North,6,2.0,4.0,78,0.00,,---,0.00,VWS V14.01,2013-03-02 20:35:00,
2013-03-02 14:40:00,26.8,21.2,30.08,East,93,1.0,4.0,79,0.00,,---,0.00,VWS V14.01,2013-03-02 20:40:00,
2013-03-02 14:45:00,26.8,20.9,30.08,West,265,1.0,4.0,78,0.00,,---,0.00,VWS V14.01,2013-03-02 20:45:00,
2013-03-02 14:50:00,26.8,20.9,30.08,WNW,293,6.0,7.0,78,0.00,,---,0.00,VWS V14.01,2013-03-02 20:50:00,
2013-03-02 14:55:00,27.0,21.1,30.08,North,356,1.0,7.0,78,0.00,,---,0.00,VWS V14.01,2013-03-02 20:55:00,
2013-03-02 15:00:00,27.0,21.1,30.08,NNW,333,0.0,3.0,78,0.00,,---,0.00,VWS V14.01,2013-03-02 21:00:00,
2013-03-02 15:05:00,27.0,20.8,30.08,WSW,250,6.0,8.0,77,0.00,,---,0.00,VWS V14.01,2013-03-02 21:05:00,
2013-03-02 15:10:00,26.9,20.7,30.09,WNW,297,6.0,8.0,77,0.00,,---,0.00,VWS V14.01,2013-03-02 21:10:00,
2013-03-02 15:15:00,27.1,21.2,30.09,ENE,58,0.0,8.0,78,0.00,,---,0.00,VWS V14.01,2013-03-02 21:15:00,
2013-03-02 15:20:00,27.1,21.2,30.09,NW,311,2.0,8.0,78,0.00,,---,0.00,VWS V14.01,2013-03-02 21:20:00,
2013-03-02 15:25:00,27.1,20.9,30.09,NW,319,2.0,8.0,77,0.00,,---,0.00,VWS V14.01,2013-03-02 21:25:00,
2013-03-02 15:30:00,26.9,20.7,30.09,NW,316,2.0,5.0,77,0.00,,---,0.00,VWS V14.01,2013-03-02 21:30:00,
2013-03-02 15:35:00,27.0,21.1,30.09,West,270,1.0,5.0,78,0.00,,---,0.00,VWS V14.01,2013-03-02 21:35:00,
2013-03-02 15:40:00,27.0,20.8,30.09,West,281,2.0,7.0,77,0.00,,---,0.00,VWS V14.01,2013-03-02 21:40:00,
2013-03-02 15:45:00,26.9,21.0,30.09,NW,311,2.0,7.0,78,0.00,,---,0.00,VWS V14.01,2013-03-02 21:45:00,
2013-03-02 15:50:00,26.9,21.0,30.09,NW,310,0.0,7.0,78,0.00,,---,0.00,VWS V14.01,2013-03-02 21:50:00,
2013-03-02 15:55:00,26.7,20.8,30.09,NNW,347,2.0,7.0,78,0.00,,---,0.00,VWS V14.01,2013-03-02 21:55:00,
2013-03-02 16:00:00,26.6,20.7,30.09,NW,321,1.0,3.0,78,0.00,,---,0.00,VWS V14.01,2013-03-02 22:00:00,
2013-03-02 16:05:00,26.6,20.7,30.09,West,271,2.0,4.0,78,0.00,,---,0.00,VWS V14.01,2013-03-02 22:05:00,
2013-03-02 16:10:00,26.5,20.6,30.09,West,273,2.0,4.0,78,0.00,,---,0.00,VWS V14.01,2013-03-02 22:10:00,
2013-03-02 16:15:00,26.3,20.4,30.09,WNW,297,2.0,5.0,78,0.00,,---,0.00,VWS V14.01,2013-03-02 22:15:00,
2013-03-02 16:20:00,26.2,20.3,30.10,West,278,1.0,7.0,78,0.00,,---,0.00,VWS V14.01,2013-03-02 22:20:00,
2013-03-02 16:25:00,26.2,20.6,30.09,NW,315,0.0,7.0,79,0.00,,---,0.00,VWS V14.01,2013-03-02 22:25:00,
2013-03-02 16:30:00,26.2,20.6,30.10,North,358,1.0,2.0,79,0.00,,---,0.00,VWS V14.01,2013-03-02 22:30:00,
2013-03-02 16:35:00,26.2,20.3,30.10,NW,319,3.0,4.0,78,0.00,,---,0.00,VWS V14.01,2013-03-02 22:35:00,
2013-03-02 16:40:00,26.1,20.2,30.10,West,280,1.0,4.0,78,0.00,,---,0.00,VWS V14.01,2013-03-02 22:40:00,
2013-03-02 16:45:00,26.1,20.2,30.10,WSW,248,1.0,5.0,78,0.00,,---,0.00,VWS V14.01,2013-03-02 22:45:00,
2013-03-02 16:50:00,26.1,20.2,30.10,NW,316,0.0,5.0,78,0.00,,---,0.00,VWS V14.01,2013-03-02 22:50:00,
2013-03-02 16:55:00,26.1,20.2,30.11,NNW,348,1.0,5.0,78,0.00,,---,0.00,VWS V14.01,2013-03-02 22:55:00,
2013-03-02 17:00:00,26.1,20.2,30.11,NNE,33,2.0,2.0,78,0.00,,---,0.00,VWS V14.01,2013-03-02 23:00:00,
2013-03-02 17:05:00,25.9,20.0,30.11,NW,320,0.0,4.0,78,0.00,,---,0.00,VWS V14.01,2013-03-02 23:05:00,
2013-03-02 17:10:00,25.9,20.0,30.11,NNW,338,0.0,5.0,78,0.00,,---,0.00,VWS V14.01,2013-03-02 23:10:00,
2013-03-02 17:15:00,25.8,19.9,30.11,West,276,2.0,7.0,78,0.00,,---,0.00,VWS V14.01,2013-03-02 23:15:00,
2013-03-02 17:20:00,25.8,19.9,30.11,North,6,1.0,7.0,78,0.00,,---,0.00,VWS V14.01,2013-03-02 23:20:00,
2013-03-02 17:25:00,25.7,19.8,30.11,WNW,297,1.0,7.0,78,0.00,,---,0.00,VWS V14.01,2013-03-02 23:25:00,
2013-03-02 17:30:00,25.7,19.8,30.11,NNE,18,2.0,3.0,78,0.00,,---,0.00,VWS V14.01,2013-03-02 23:30:00,
2013-03-02 17:35:00,25.7,19.8,30.11,North,352,1.0,3.0,78,0.00,,---,0.00,VWS V14.01,2013-03-02 23:35:00,
2013-03-02 17:40:00,25.7,20.1,30.11,West,267,1.0,3.0,79,0.00,,---,0.00,VWS V14.01,2013-03-02 23:40:00,
2013-03-02 17:45:00,25.7,19.8,30.11,NNW,342,1.0,7.0,78,0.00,,---,0.00,VWS V14.01,2013-03-02 23:45:00,
2013-03-02 17:50:00,25.6,19.7,30.11,North,349,3.0,7.0,78,0.00,,---,0.00,VWS V14.01,2013-03-02 23:50:00,
2013-03-02 17:55:00,25.6,20.0,30.12,NNW,338,0.0,7.0,79,0.00,,---,0.00,VWS V14.01,2013-03-02 23:55:00,
2013-03-02 18:00:00,25.6,20.0,30.11,NW,309,1.0,5.0,79,0.00,,---,0.00,VWS V14.01,2013-03-03 00:00:00,
2013-03-02 18:05:00,25.5,19.6,30.11,WNW,300,1.0,5.0,78,0.00,,---,0.00,VWS V14.01,2013-03-03 00:05:00,
2013-03-02 18:10:00,25.5,19.6,30.12,WNW,300,1.0,6.0,78,0.00,,---,0.00,VWS V14.01,2013-03-03 00:10:00,
2013-03-02 18:15:00,25.6,19.7,30.12,NNW,340,3.0,6.0,78,0.00,,---,0.00,VWS V14.01,2013-03-03 00:15:00,
2013-03-02 18:20:00,25.5,19.6,30.11,NW,320,1.0,7.0,78,0.00,,---,0.00,VWS V14.01,2013-03-03 00:20:00,
2013-03-02 18:25:00,25.5,19.3,30.12,North,354,2.0,8.0,77,0.00,,---,0.00,VWS V14.01,2013-03-03 00:25:00,
2013-03-02 18:30:00,25.5,19.3,30.12,WSW,242,1.0,2.0,77,0.00,,---,0.00,VWS V14.01,2013-03-03 00:30:00,
2013-03-02 18:35:00,25.4,19.5,30.12,WNW,287,2.0,2.0,78,0.00,,---,0.00,VWS V14.01,2013-03-03 00:35:00,
2013-03-02 18:40:00,25.5,19.6,30.11,West,266,3.0,4.0,78,0.00,,---,0.00,VWS V14.01,2013-03-03 00:40:00,
2013-03-02 18:45:00,25.4,19.5,30.11,NNE,33,2.0,5.0,78,0.00,,---,0.00,VWS V14.01,2013-03-03 00:45:00,
2013-03-02 18:50:00,25.4,19.5,30.11,SW,227,0.0,5.0,78,0.00,,---,0.00,VWS V14.01,2013-03-03 00:50:00,
2013-03-02 18:55:00,25.4,19.8,30.11,SSW,197,1.0,7.0,79,0.00,,---,0.00,VWS V14.01,2013-03-03 00:55:00,
2013-03-02 19:00:00,25.4,19.8,30.11,West,267,1.0,1.0,79,0.00,,---,0.00,VWS V14.01,2013-03-03 01:00:00,
2013-03-02 19:05:00,25.3,19.7,30.11,NW,320,2.0,3.0,79,0.00,,---,0.00,VWS V14.01,2013-03-03 01:05:00,
2013-03-02 19:10:00,25.3,19.7,30.11,NNW,330,2.0,5.0,79,0.00,,---,0.00,VWS V14.01,2013-03-03 01:10:00,
2013-03-02 19:15:00,25.2,19.6,30.11,NNW,333,1.0,5.0,79,0.00,,---,0.00,VWS V14.01,2013-03-03 01:15:00,
2013-03-02 19:20:00,25.1,19.5,30.11,WNW,299,4.0,5.0,79,0.00,,---,0.00,VWS V14.01,2013-03-03 01:20:00,
2013-03-02 19:25:00,25.1,19.5,30.11,WNW,293,1.0,5.0,79,0.00,,---,0.00,VWS V14.01,2013-03-03 01:25:00,
2013-03-02 19:30:00,25.1,19.5,30.11,WNW,287,3.0,5.0,79,0.00,,---,0.00,VWS V14.01,2013-03-03 01:30:00,
2013-03-02 19:35:00,25.1,19.8,30.11,West,281,1.0,5.0,80,0.00,,---,0.00,VWS V14.01,2013-03-03 01:35:00,
2013-03-02 19:40:00,25.0,19.7,30.11,West,278,0.0,5.0,80,0.00,,---,0.00,VWS V14.01,2013-03-03 01:40:00,
2013-03-02 19:45:00,25.0,19.7,30.11,NW,311,0.0,5.0,80,0.00,,---,0.00,VWS V14.01,2013-03-03 01:45:00,
2013-03-02 19:50:00,24.9,19.6,30.11,North,6,0.0,5.0,80,0.00,,---,0.00,VWS V14.01,2013-03-03 01:50:00,
2013-03-02 19:55:00,24.9,19.6,30.11,WNW,283,1.0,5.0,80,0.00,,---,0.00,VWS V14.01,2013-03-03 01:55:00,
2013-03-02 20:00:00,24.8,19.2,30.11,SW,228,1.0,4.0,79,0.00,,---,0.00,VWS V14.01,2013-03-03 02:00:00,
2013-03-02 20:05:00,24.7,19.1,30.11,NNW,335,2.0,6.0,79,0.00,,---,0.00,VWS V14.01,2013-03-03 02:05:00,
2013-03-02 20:10:00,24.7,19.1,30.11,NW,307,1.0,6.0,79,0.00,,---,0.00,VWS V14.01,2013-03-03 02:10:00,
2013-03-02 20:15:00,24.7,19.1,30.11,WNW,290,2.0,6.0,79,0.00,,---,0.00,VWS V14.01,2013-03-03 02:15:00,
2013-03-02 20:20:00,24.7,19.4,30.11,West,277,2.0,6.0,80,0.00,,---,0.00,VWS V14.01,2013-03-03 02:20:00,
2013-03-02 20:25:00,24.6,19.3,30.11,NW,326,1.0,6.0,80,0.00,,---,0.00,VWS V14.01,2013-03-03 02:25:00,
2013-03-02 20:30:00,24.6,19.3,30.11,NW,306,0.0,2.0,80,0.00,,---,0.00,VWS V14.01,2013-03-03 02:30:00,
2013-03-02 20:35:00,24.6,19.3,30.11,NW,306,2.0,5.0,80,0.00,,---,0.00,VWS V14.01,2013-03-03 02:35:00,
2013-03-02 20:40:00,24.5,19.2,30.11,WNW,297,4.0,7.0,80,0.00,,---,0.00,VWS V14.01,2013-03-03 02:40:00,
2013-03-02 20:45:00,24.5,19.2,30.11,West,281,1.0,7.0,80,0.00,,---,0.00,VWS V14.01,2013-03-03 02:45:00,
2013-03-02 20:50:00,24.4,18.8,30.12,WNW,297,3.0,7.0,79,0.00,,---,0.00,VWS V14.01,2013-03-03 02:50:00,
2013-03-02 20:55:00,24.4,19.1,30.11,WSW,256,1.0,9.0,80,0.00,,---,0.00,VWS V14.01,2013-03-03 02:55:00,
2013-03-02 21:00:00,24.4,19.1,30.11,NW,307,2.0,4.0,80,0.00,,---,0.00,VWS V14.01,2013-03-03 03:00:00,
2013-03-02 21:05:00,24.4,18.8,30.12,North,358,2.0,4.0,79,0.00,,---,0.00,VWS V14.01,2013-03-03 03:05:00,
2013-03-02 21:10:00,24.3,18.7,30.12,NNW,333,3.0,8.0,79,0.00,,---,0.00,VWS V14.01,2013-03-03 03:10:00,
2013-03-02 21:15:00,24.3,18.7,30.12,NE,37,0.0,8.0,79,0.00,,---,0.00,VWS V14.01,2013-03-03 03:15:00,
2013-03-02 21:20:00,24.3,18.7,30.12,WNW,300,0.0,8.0,79,0.00,,---,0.00,VWS V14.01,2013-03-03 03:20:00,
2013-03-02 21:25:00,24.3,19.0,30.12,SSW,205,0.0,8.0,80,0.00,,---,0.00,VWS V14.01,2013-03-03 03:25:00,
2013-03-02 21:30:00,24.2,18.9,30.11,West,259,0.0,1.0,80,0.00,,---,0.00,VWS V14.01,2013-03-03 03:30:00,
2013-03-02 21:35:00,24.2,18.9,30.11,WSW,247,0.0,1.0,80,0.00,,---,0.00,VWS V14.01,2013-03-03 03:35:00,
2013-03-02 21:40:00,24.3,19.0,30.11,NNW,330,0.0,3.0,80,0.00,,---,0.00,VWS V14.01,2013-03-03 03:40:00,
2013-03-02 21:45:00,24.2,18.9,30.11,NW,309,2.0,3.0,80,0.00,,---,0.00,VWS V14.01,2013-03-03 03:45:00,
2013-03-02 21:50:00,24.2,18.9,30.11,WNW,284,3.0,7.0,80,0.00,,---,0.00,VWS V14.01,2013-03-03 03:50:00,
2013-03-02 21:55:00,24.2,18.9,30.11,WNW,288,1.0,7.0,80,0.00,,---,0.00,VWS V14.01,2013-03-03 03:55:00,
2013-03-02 22:00:00,24.2,19.2,30.11,NNW,333,0.0,3.0,81,0.00,,---,0.00,VWS V14.01,2013-03-03 04:00:00,
2013-03-02 22:05:00,24.2,19.2,30.11,West,281,1.0,3.0,81,0.00,,---,0.00,VWS V14.01,2013-03-03 04:05:00,
2013-03-02 22:10:00,24.2,19.2,30.11,West,280,1.0,5.0,81,0.00,,---,0.00,VWS V14.01,2013-03-03 04:10:00,
2013-03-02 22:15:00,24.1,19.1,30.11,West,280,1.0,6.0,81,0.00,,---,0.00,VWS V14.01,2013-03-03 04:15:00,
2013-03-02 22:20:00,24.0,19.0,30.11,NW,315,2.0,6.0,81,0.00,,---,0.00,VWS V14.01,2013-03-03 04:20:00,
2013-03-02 22:25:00,24.0,18.7,30.11,NNW,338,1.0,8.0,80,0.00,,---,0.00,VWS V14.01,2013-03-03 04:25:00,
2013-03-02 22:30:00,23.9,18.6,30.11,WNW,297,1.0,2.0,80,0.00,,---,0.00,VWS V14.01,2013-03-03 04:30:00,
2013-03-02 22:35:00,23.9,18.4,30.11,WNW,283,3.0,5.0,79,0.00,,---,0.00,VWS V14.01,2013-03-03 04:35:00,
2013-03-02 22:40:00,23.9,18.6,30.11,WNW,285,3.0,5.0,80,0.00,,---,0.00,VWS V14.01,2013-03-03 04:40:00,
2013-03-02 22:45:00,23.8,18.2,30.11,WNW,285,0.0,5.0,79,0.00,,---,0.00,VWS V14.01,2013-03-03 04:45:00,
2013-03-02 22:50:00,23.8,18.2,30.11,NW,318,4.0,5.0,79,0.00,,---,0.00,VWS V14.01,2013-03-03 04:50:00,
2013-03-02 22:55:00,23.8,18.2,30.11,West,274,1.0,6.0,79,0.00,,---,0.00,VWS V14.01,2013-03-03 04:55:00,
2013-03-02 23:00:00,23.8,18.2,30.10,WSW,256,1.0,2.0,79,0.00,,---,0.00,VWS V14.01,2013-03-03 05:00:00,
2013-03-02 23:05:00,23.8,18.2,30.11,West,259,3.0,3.0,79,0.00,,---,0.00,VWS V14.01,2013-03-03 05:05:00,
2013-03-02 23:10:00,23.8,18.2,30.10,WNW,293,3.0,5.0,79,0.00,,---,0.00,VWS V14.01,2013-03-03 05:10:00,
2013-03-02 23:15:00,23.8,18.2,30.10,WNW,300,0.0,5.0,79,0.00,,---,0.00,VWS V14.01,2013-03-03 05:15:00,
2013-03-02 23:20:00,23.8,18.2,30.10,NW,304,1.0,6.0,79,0.00,,---,0.00,VWS V14.01,2013-03-03 05:20:00,
2013-03-02 23:25:00,23.8,18.0,30.10,West,263,2.0,7.0,78,0.00,,---,0.00,VWS V14.01,2013-03-03 05:25:00,
2013-03-02 23:30:00,23.8,18.0,30.10,NW,323,1.0,5.0,78,0.00,,---,0.00,VWS V14.01,2013-03-03 05:30:00,
2013-03-02 23:35:00,23.8,18.2,30.11,West,263,2.0,5.0,79,0.00,,---,0.00,VWS V14.01,2013-03-03 05:35:00,
2013-03-02 23:40:00,23.8,18.0,30.11,NW,309,1.0,6.0,78,0.00,,---,0.00,VWS V14.01,2013-03-03 05:40:00,
2013-03-02 23:45:00,23.8,18.0,30.11,NW,317,1.0,6.0,78,0.00,,---,0.00,VWS V14.01,2013-03-03 05:45:00,
2013-03-02 23:50:00,23.8,18.0,30.11,WNW,299,0.0,6.0,78,0.00,,---,0.00,VWS V14.01,2013-03-03 05:50:00,
2013-03-02 23:55:00,23.8,18.0,30.11,WNW,300,0.0,6.0,78,0.00,,---,0.00,VWS V14.01,2013-03-03 05:55:00,